Location: *
(2.5500°S, 65.9667°W)
Time: 06:52:46
(UTC+00:00)

Tiros 1 despin weight - Pass Details

Date: 14 April 2024
Orbit: 578 x 621 km, 48.2° (Epoch: 27 May)

Event Time Altitude Azimuth Distance (km) Brightness Sun altitude
Rises 15:05:38 0° 197° (SSW) 2,791 ? 66.9°
Reaches altitude 10° 15:08:19 10° 181° (S) 1,894 ? 67.5°
Maximum altitude 15:11:41 22° 130° (SE) 1,299 ? 68.2°
Drops below altitude 10° 15:15:03 10° 79° (E) 1,905 ? 68.9°
Sets 15:17:45 0° 64° (ENE) 2,811 ? 69.4°
